owner,sensor,date,latitude,longitude,vertical_datum,wind_speed,wind_to_direction,wind_speed_of_gust,qcFlag 
COMPS,ioos:station:USF.COMPS:ARP:1,2014-09-01T00:00:00Z,28.4330,-82.6670,10.0,0.59,25.92,0.97,'1111122,1111122,1111122' 
COMPS,ioos:station:USF.COMPS:ARP:1,2014-09-01T00:06:00Z,28.4330,-82.6670,10.0,0.29,78.96,0.68,'1111122,1111122,1111122' 
COMPS,ioos:station:USF.COMPS:ARP:1,2014-09-01T00:12:00Z,28.4330,-82.6670,10.0,0.43,100.98,0.78,'1111122,1111122,1111122' 
COMPS,ioos:station:USF.COMPS:ARP:1,2014-09-01T00:18:00Z,28.4330,-82.6670,10.0,0.83,80.18,0.97,'1111122,1111122,1111122' 
COMPS,ioos:station:USF.COMPS:ARP:1,2014-09-01T00:24:00Z,28.4330,-82.6670,10.0,0.55,85.67,0.78,'1111122,1111122,1111122' 
COMPS,ioos:station:USF.COMPS:ARP:1,2014-09-01T00:30:00Z,28.4330,-82.6670,10.0,0.89,93.02,1.27,'1111122,1111122,1111122' 
COMPS,ioos:station:USF.COMPS:ARP:1,2014-09-01T00:36:00Z,28.4330,-82.6670,10.0,0.48,50.71,0.78,'1111122,1111122,1111122' 
COMPS,ioos:station:USF.COMPS:ARP:1,2014-09-01T00:42:00Z,28.4330,-82.6670,10.0,0.1,19.36,0.49,'1111122,1111122,1111122' 
COMPS,ioos:station:USF.COMPS:ARP:1,2014-09-01T00:48:00Z,28.4330,-82.6670,10.0,0.26,67.83,0.68,'1111122,1111122,1111122' 
COMPS,ioos:station:USF.COMPS:ARP:1,2014-09-01T00:54:00Z,28.4330,-82.6670,10.0,0.66,90.9,0.97,'1111122,1111122,1111122' 
COMPS,ioos:station:USF.COMPS:ARP:1,2014-09-01T01:00:00Z,28.4330,-82.6670,10.0,0.69,90.38,1.07,'1111122,1111122,1111122' 
COMPS,ioos:station:USF.COMPS:ARP:1,2014-09-01T01:06:00Z,28.4330,-82.6670,10.0,0.56,69.73,0.78,'1111122,1111122,1111122' 
COMPS,ioos:station:USF.COMPS:ARP:1,2014-09-01T01:12:00Z,28.4330,-82.6670,10.0,0.86,68.42,1.27,'1111122,1111122,1111122' 
COMPS,ioos:station:USF.COMPS:ARP:1,2014-09-01T01:18:00Z,28.4330,-82.6670,10.0,0.77,77.83,1.46,'1111122,1111122,1111122' 
COMPS,ioos:station:USF.COMPS:ARP:1,2014-09-01T01:24:00Z,28.4330,-82.6670,10.0,0.37,102.14,0.68,'1111122,1111122,1111122' 
COMPS,ioos:station:USF.COMPS:ARP:1,2014-09-01T01:30:00Z,28.4330,-82.6670,10.0,0.1,88.17,0.39,'1111122,1111122,1111122' 
COMPS,ioos:station:USF.COMPS:ARP:1,2014-09-01T01:36:00Z,28.4330,-82.6670,10.0,0.29,84.46,0.58,'1111122,1111122,1111122' 
COMPS,ioos:station:USF.COMPS:ARP:1,2014-09-01T01:42:00Z,28.4330,-82.6670,10.0,0.42,106.7,0.68,'1111122,1111122,1111122' 
COMPS,ioos:station:USF.COMPS:ARP:1,2014-09-01T01:48:00Z,28.4330,-82.6670,10.0,0.8,91.11,1.37,'1111122,1111122,1111122' 
COMPS,ioos:station:USF.COMPS:ARP:1,2014-09-01T01:54:00Z,28.4330,-82.6670,10.0,1.03,89.96,1.27,'1111122,1111122,1111122' 
COMPS,ioos:station:USF.COMPS:ARP:1,2014-09-01T02:00:00Z,28.4330,-82.6670,10.0,1.24,87.75,1.95,'1111122,1111122,1111122' 
COMPS,ioos:station:USF.COMPS:ARP:1,2014-09-01T02:06:00Z,28.4330,-82.6670,10.0,1.18,100.16,1.56,'1111122,1111122,1111122' 
COMPS,ioos:station:USF.COMPS:ARP:1,2014-09-01T02:12:00Z,28.4330,-82.6670,10.0,1.21,114.18,1.56,'1111122,1111122,1111122' 
COMPS,ioos:station:USF.COMPS:ARP:1,2014-09-01T02:18:00Z,28.4330,-82.6670,10.0,1.03,115.48,1.56,'1111122,1111122,1111122' 
COMPS,ioos:station:USF.COMPS:ARP:1,2014-09-01T02:24:00Z,28.4330,-82.6670,10.0,1.12,110.43,1.66,'1111122,1111122,1111122' 
COMPS,ioos:station:USF.COMPS:ARP:1,2014-09-01T02:30:00Z,28.4330,-82.6670,10.0,1.06,135.33,2.64,'1111122,1111122,1111122' 
COMPS,ioos:station:USF.COMPS:ARP:1,2014-09-01T02:36:00Z,28.4330,-82.6670,10.0,1.28,160.61,2.54,'1111122,1111122,1111122' 
COMPS,ioos:station:USF.COMPS:ARP:1,2014-09-01T02:42:00Z,28.4330,-82.6670,10.0,0.39,115.97,0.97,'1111122,1111122,1111122' 
COMPS,ioos:station:USF.COMPS:ARP:1,2014-09-01T02:48:00Z,28.4330,-82.6670,10.0,0.73,89.85,1.37,'1111122,1111122,1111122' 
COMPS,ioos:station:USF.COMPS:ARP:1,2014-09-01T02:54:00Z,28.4330,-82.6670,10.0,1.03,78.8,1.27,'1111122,1111122,1111122' 
COMPS,ioos:station:USF.COMPS:ARP:1,2014-09-01T03:00:00Z,28.4330,-82.6670,10.0,1.0,108.61,1.27,'1111122,1111122,1111122' 
COMPS,ioos:station:USF.COMPS:ARP:1,2014-09-01T03:06:00Z,28.4330,-82.6670,10.0,1.05,130.31,1.46,'1111122,1111122,1111122' 
COMPS,ioos:station:USF.COMPS:ARP:1,2014-09-01T03:12:00Z,28.4330,-82.6670,10.0,0.99,134.96,1.46,'1111122,1111122,1111122' 
COMPS,ioos:station:USF.COMPS:ARP:1,2014-09-01T03:18:00Z,28.4330,-82.6670,10.0,0.79,113.66,1.37,'1111122,1111122,1111122' 
COMPS,ioos:station:USF.COMPS:ARP:1,2014-09-01T03:24:00Z,28.4330,-82.6670,10.0,0.59,118.4,0.97,'1111122,1111122,1111122' 
COMPS,ioos:station:USF.COMPS:ARP:1,2014-09-01T03:30:00Z,28.4330,-82.6670,10.0,0.8,131.0,1.86,'1111122,1111122,1111122' 
COMPS,ioos:station:USF.COMPS:ARP:1,2014-09-01T03:36:00Z,28.4330,-82.6670,10.0,1.11,119.16,2.05,'1111122,1111122,1111122' 
COMPS,ioos:station:USF.COMPS:ARP:1,2014-09-01T03:42:00Z,28.4330,-82.6670,10.0,0.88,121.28,1.46,'1111122,1111122,1111122' 
COMPS,ioos:station:USF.COMPS:ARP:1,2014-09-01T03:48:00Z,28.4330,-82.6670,10.0,1.42,106.91,2.05,'1111122,1111122,1111122' 
COMPS,ioos:station:USF.COMPS:ARP:1,2014-09-01T03:54:00Z,28.4330,-82.6670,10.0,1.31,93.76,1.86,'1111122,1111122,1111122' 
COMPS,ioos:station:USF.COMPS:ARP:1,2014-09-01T04:00:00Z,28.4330,-82.6670,10.0,1.04,92.98,1.56,'1111122,1111122,1111122' 
COMPS,ioos:station:USF.COMPS:ARP:1,2014-09-01T04:06:00Z,28.4330,-82.6670,10.0,1.37,95.46,1.66,'1111122,1111122,1111122' 
COMPS,ioos:station:USF.COMPS:ARP:1,2014-09-01T04:12:00Z,28.4330,-82.6670,10.0,1.06,96.53,1.56,'1111122,1111122,1111122' 
COMPS,ioos:station:USF.COMPS:ARP:1,2014-09-01T04:18:00Z,28.4330,-82.6670,10.0,1.16,106.35,1.66,'1111122,1111122,1111122' 
COMPS,ioos:station:USF.COMPS:ARP:1,2014-09-01T04:24:00Z,28.4330,-82.6670,10.0,1.01,123.07,1.66,'1111122,1111122,1111122' 
COMPS,ioos:station:USF.COMPS:ARP:1,2014-09-01T04:30:00Z,28.4330,-82.6670,10.0,0.92,115.2,1.46,'1111122,1111122,1111122' 
COMPS,ioos:station:USF.COMPS:ARP:1,2014-09-01T04:36:00Z,28.4330,-82.6670,10.0,0.94,88.51,1.27,'1111122,1111122,1111122' 
COMPS,ioos:station:USF.COMPS:ARP:1,2014-09-01T04:42:00Z,28.4330,-82.6670,10.0,0.92,91.63,1.07,'1111122,1111122,1111122' 
COMPS,ioos:station:USF.COMPS:ARP:1,2014-09-01T04:48:00Z,28.4330,-82.6670,10.0,0.9,108.42,1.27,'1111122,1111122,1111122' 
COMPS,ioos:station:USF.COMPS:ARP:1,2014-09-01T04:54:00Z,28.4330,-82.6670,10.0,1.02,115.3,1.76,'1111122,1111122,1111122' 
COMPS,ioos:station:USF.COMPS:ARP:1,2014-09-01T05:00:00Z,28.4330,-82.6670,10.0,1.25,113.69,2.05,'1111122,1111122,1111122' 
COMPS,ioos:station:USF.COMPS:ARP:1,2014-09-01T05:06:00Z,28.4330,-82.6670,10.0,1.05,98.54,1.66,'1111122,1111122,1111122' 
COMPS,ioos:station:USF.COMPS:ARP:1,2014-09-01T05:12:00Z,28.4330,-82.6670,10.0,0.8,84.88,1.27,'1111122,1111122,1111122' 
COMPS,ioos:station:USF.COMPS:ARP:1,2014-09-01T05:18:00Z,28.4330,-82.6670,10.0,0.81,91.81,1.27,'1111122,1111122,1111122' 
COMPS,ioos:station:USF.COMPS:ARP:1,2014-09-01T05:24:00Z,28.4330,-82.6670,10.0,0.71,99.77,0.88,'1111122,1111122,1111122' 
COMPS,ioos:station:USF.COMPS:ARP:1,2014-09-01T05:30:00Z,28.4330,-82.6670,10.0,0.43,100.11,0.78,'1111122,1111122,1111122' 
COMPS,ioos:station:USF.COMPS:ARP:1,2014-09-01T05:36:00Z,28.4330,-82.6670,10.0,0.87,102.19,1.07,'1111122,1111122,1111122' 
COMPS,ioos:station:USF.COMPS:ARP:1,2014-09-01T05:42:00Z,28.4330,-82.6670,10.0,0.92,105.36,1.07,'1111122,1111122,1111122' 
COMPS,ioos:station:USF.COMPS:ARP:1,2014-09-01T05:48:00Z,28.4330,-82.6670,10.0,0.79,98.27,0.97,'1111122,1111122,1111122' 
COMPS,ioos:station:USF.COMPS:ARP:1,2014-09-01T05:54:00Z,28.4330,-82.6670,10.0,0.96,85.08,1.37,'1111122,1111122,1111122' 
COMPS,ioos:station:USF.COMPS:ARP:1,2014-09-01T06:00:00Z,28.4330,-82.6670,10.0,0.77,94.61,1.07,'1111122,1111122,1111122' 
COMPS,ioos:station:USF.COMPS:ARP:1,2014-09-01T06:06:00Z,28.4330,-82.6670,10.0,0.74,81.2,0.97,'1111122,1111122,1111122' 
COMPS,ioos:station:USF.COMPS:ARP:1,2014-09-01T06:12:00Z,28.4330,-82.6670,10.0,0.82,83.92,0.97,'1111122,1111122,1111122' 
COMPS,ioos:station:USF.COMPS:ARP:1,2014-09-01T06:18:00Z,28.4330,-82.6670,10.0,1.06,94.56,1.56,'1111122,1111122,1111122' 
COMPS,ioos:station:USF.COMPS:ARP:1,2014-09-01T06:24:00Z,28.4330,-82.6670,10.0,1.38,106.21,1.95,'1111122,1111122,1111122' 
COMPS,ioos:station:USF.COMPS:ARP:1,2014-09-01T06:30:00Z,28.4330,-82.6670,10.0,1.67,102.51,2.15,'1111122,1111122,1111122' 
COMPS,ioos:station:USF.COMPS:ARP:1,2014-09-01T06:36:00Z,28.4330,-82.6670,10.0,1.41,96.58,1.95,'1111122,1111122,1111122' 
COMPS,ioos:station:USF.COMPS:ARP:1,2014-09-01T06:42:00Z,28.4330,-82.6670,10.0,1.58,97.24,1.95,'1111122,1111122,1111122' 
COMPS,ioos:station:USF.COMPS:ARP:1,2014-09-01T06:48:00Z,28.4330,-82.6670,10.0,1.41,88.8,1.76,'1111122,1111122,1111122' 
COMPS,ioos:station:USF.COMPS:ARP:1,2014-09-01T06:54:00Z,28.4330,-82.6670,10.0,1.29,90.0,1.66,'1111122,1111122,1111122' 
COMPS,ioos:station:USF.COMPS:ARP:1,2014-09-01T07:00:00Z,28.4330,-82.6670,10.0,1.47,97.75,1.76,'1111122,1111122,1111122' 
COMPS,ioos:station:USF.COMPS:ARP:1,2014-09-01T07:06:00Z,28.4330,-82.6670,10.0,1.48,86.15,1.95,'1111122,1111122,1111122' 
COMPS,ioos:station:USF.COMPS:ARP:1,2014-09-01T07:12:00Z,28.4330,-82.6670,10.0,1.64,76.77,2.15,'1111122,1111122,1111122' 
COMPS,ioos:station:USF.COMPS:ARP:1,2014-09-01T07:18:00Z,28.4330,-82.6670,10.0,1.6,84.54,2.05,'1111122,1111122,1111122' 
COMPS,ioos:station:USF.COMPS:ARP:1,2014-09-01T07:24:00Z,28.4330,-82.6670,10.0,1.41,86.9,1.86,'1111122,1111122,1111122' 
COMPS,ioos:station:USF.COMPS:ARP:1,2014-09-01T07:30:00Z,28.4330,-82.6670,10.0,1.43,94.05,2.64,'1111122,1111122,1111122' 
COMPS,ioos:station:USF.COMPS:ARP:1,2014-09-01T07:36:00Z,28.4330,-82.6670,10.0,1.42,93.63,2.15,'1111122,1111122,1111122' 
COMPS,ioos:station:USF.COMPS:ARP:1,2014-09-01T07:42:00Z,28.4330,-82.6670,10.0,1.48,96.34,1.95,'1111122,1111122,1111122' 
COMPS,ioos:station:USF.COMPS:ARP:1,2014-09-01T07:48:00Z,28.4330,-82.6670,10.0,1.41,96.39,1.86,'1111122,1111122,1111122' 
COMPS,ioos:station:USF.COMPS:ARP:1,2014-09-01T07:54:00Z,28.4330,-82.6670,10.0,1.42,92.82,2.05,'1111122,1111122,1111122' 
COMPS,ioos:station:USF.COMPS:ARP:1,2014-09-01T08:00:00Z,28.4330,-82.6670,10.0,1.52,93.8,2.15,'1111122,1111122,1111122' 
COMPS,ioos:station:USF.COMPS:ARP:1,2014-09-01T08:06:00Z,28.4330,-82.6670,10.0,1.38,93.0,1.95,'1111122,1111122,1111122' 
COMPS,ioos:station:USF.COMPS:ARP:1,2014-09-01T08:12:00Z,28.4330,-82.6670,10.0,1.7,88.66,2.15,'1111122,1111122,1111122' 
COMPS,ioos:station:USF.COMPS:ARP:1,2014-09-01T08:18:00Z,28.4330,-82.6670,10.0,1.51,101.25,2.25,'1111122,1111122,1111122' 
COMPS,ioos:station:USF.COMPS:ARP:1,2014-09-01T08:24:00Z,28.4330,-82.6670,10.0,1.83,106.0,2.35,'1111122,1111122,1111122' 
COMPS,ioos:station:USF.COMPS:ARP:1,2014-09-01T08:30:00Z,28.4330,-82.6670,10.0,1.76,108.28,2.45,'1111122,1111122,1111122' 
COMPS,ioos:station:USF.COMPS:ARP:1,2014-09-01T08:36:00Z,28.4330,-82.6670,10.0,2.0,110.88,2.74,'1111122,1111122,1111122' 
COMPS,ioos:station:USF.COMPS:ARP:1,2014-09-01T08:42:00Z,28.4330,-82.6670,10.0,1.93,114.47,2.84,'1111122,1111122,1111122' 
COMPS,ioos:station:USF.COMPS:ARP:1,2014-09-01T08:48:00Z,28.4330,-82.6670,10.0,2.06,111.92,2.84,'1111122,1111122,1111122' 
COMPS,ioos:station:USF.COMPS:ARP:1,2014-09-01T08:54:00Z,28.4330,-82.6670,10.0,1.79,110.88,2.74,'1111122,1111122,1111122' 
COMPS,ioos:station:USF.COMPS:ARP:1,2014-09-01T09:00:00Z,28.4330,-82.6670,10.0,1.48,113.25,2.05,'1111122,1111122,1111122' 
COMPS,ioos:station:USF.COMPS:ARP:1,2014-09-01T09:06:00Z,28.4330,-82.6670,10.0,1.46,108.19,2.15,'1111122,1111122,1111122' 
COMPS,ioos:station:USF.COMPS:ARP:1,2014-09-01T09:12:00Z,28.4330,-82.6670,10.0,1.53,109.26,2.15,'1111122,1111122,1111122' 
COMPS,ioos:station:USF.COMPS:ARP:1,2014-09-01T09:18:00Z,28.4330,-82.6670,10.0,1.5,112.34,1.95,'1111122,1111122,1111122' 
COMPS,ioos:station:USF.COMPS:ARP:1,2014-09-01T09:24:00Z,28.4330,-82.6670,10.0,1.35,102.39,1.86,'1111122,1111122,1111122' 
COMPS,ioos:station:USF.COMPS:ARP:1,2014-09-01T09:30:00Z,28.4330,-82.6670,10.0,1.23,97.48,1.66,'1111122,1111122,1111122' 
COMPS,ioos:station:USF.COMPS:ARP:1,2014-09-01T09:36:00Z,28.4330,-82.6670,10.0,1.22,93.34,1.66,'1111122,1111122,1111122' 
COMPS,ioos:station:USF.COMPS:ARP:1,2014-09-01T09:42:00Z,28.4330,-82.6670,10.0,1.31,104.85,1.95,'1111122,1111122,1111122' 
COMPS,ioos:station:USF.COMPS:ARP:1,2014-09-01T09:48:00Z,28.4330,-82.6670,10.0,1.42,101.12,2.25,'1111122,1111122,1111122' 
COMPS,ioos:station:USF.COMPS:ARP:1,2014-09-01T09:54:00Z,28.4330,-82.6670,10.0,1.65,109.7,2.35,'1111122,1111122,1111122' 
COMPS,ioos:station:USF.COMPS:ARP:1,2014-09-01T10:00:00Z,28.4330,-82.6670,10.0,1.44,114.36,2.05,'1111122,1111122,1111122' 
COMPS,ioos:station:USF.COMPS:ARP:1,2014-09-01T10:06:00Z,28.4330,-82.6670,10.0,1.48,115.41,1.95,'1111122,1111122,1111122' 
COMPS,ioos:station:USF.COMPS:ARP:1,2014-09-01T10:12:00Z,28.4330,-82.6670,10.0,0.92,119.76,1.86,'1111122,1111122,1111122' 
COMPS,ioos:station:USF.COMPS:ARP:1,2014-09-01T10:18:00Z,28.4330,-82.6670,10.0,1.48,111.48,2.54,'1111122,1111122,1111122' 
COMPS,ioos:station:USF.COMPS:ARP:1,2014-09-01T10:24:00Z,28.4330,-82.6670,10.0,1.47,116.08,2.25,'1111122,1111122,1111122' 
COMPS,ioos:station:USF.COMPS:ARP:1,2014-09-01T10:30:00Z,28.4330,-82.6670,10.0,1.74,108.93,2.35,'1111122,1111122,1111122' 
COMPS,ioos:station:USF.COMPS:ARP:1,2014-09-01T10:36:00Z,28.4330,-82.6670,10.0,1.7,104.99,2.35,'1111122,1111122,1111122' 
COMPS,ioos:station:USF.COMPS:ARP:1,2014-09-01T10:42:00Z,28.4330,-82.6670,10.0,1.51,104.7,2.15,'1111122,1111122,1111122' 
COMPS,ioos:station:USF.COMPS:ARP:1,2014-09-01T10:48:00Z,28.4330,-82.6670,10.0,1.58,105.62,2.25,'1111122,1111122,1111122' 
COMPS,ioos:station:USF.COMPS:ARP:1,2014-09-01T10:54:00Z,28.4330,-82.6670,10.0,1.44,100.26,1.95,'1111122,1111122,1111122' 
COMPS,ioos:station:USF.COMPS:ARP:1,2014-09-01T11:00:00Z,28.4330,-82.6670,10.0,1.41,102.88,2.05,'1111122,1111122,1111122' 
COMPS,ioos:station:USF.COMPS:ARP:1,2014-09-01T11:06:00Z,28.4330,-82.6670,10.0,1.46,108.24,2.15,'1111122,1111122,1111122' 
COMPS,ioos:station:USF.COMPS:ARP:1,2014-09-01T11:12:00Z,28.4330,-82.6670,10.0,1.61,102.78,2.25,'1111122,1111122,1111122' 
COMPS,ioos:station:USF.COMPS:ARP:1,2014-09-01T11:18:00Z,28.4330,-82.6670,10.0,1.57,100.51,2.25,'1111122,1111122,1111122' 
COMPS,ioos:station:USF.COMPS:ARP:1,2014-09-01T11:24:00Z,28.4330,-82.6670,10.0,1.55,105.28,2.35,'1111122,1111122,1111122' 
COMPS,ioos:station:USF.COMPS:ARP:1,2014-09-01T11:30:00Z,28.4330,-82.6670,10.0,1.59,103.55,2.45,'1111122,1111122,1111122' 
COMPS,ioos:station:USF.COMPS:ARP:1,2014-09-01T11:36:00Z,28.4330,-82.6670,10.0,1.85,103.73,2.54,'1111122,1111122,1111122' 
COMPS,ioos:station:USF.COMPS:ARP:1,2014-09-01T11:42:00Z,28.4330,-82.6670,10.0,1.69,109.14,2.64,'1111122,1111122,1111122' 
COMPS,ioos:station:USF.COMPS:ARP:1,2014-09-01T11:48:00Z,28.4330,-82.6670,10.0,1.87,98.51,2.64,'1111122,1111122,1111122' 
COMPS,ioos:station:USF.COMPS:ARP:1,2014-09-01T11:54:00Z,28.4330,-82.6670,10.0,1.82,101.86,2.74,'1111122,1111122,1111122' 
COMPS,ioos:station:USF.COMPS:ARP:1,2014-09-01T12:00:00Z,28.4330,-82.6670,10.0,1.85,105.51,2.64,'1111122,1111122,1111122' 
COMPS,ioos:station:USF.COMPS:ARP:1,2014-09-01T12:06:00Z,28.4330,-82.6670,10.0,1.86,97.49,2.64,'1111122,1111122,1111122' 
COMPS,ioos:station:USF.COMPS:ARP:1,2014-09-01T12:12:00Z,28.4330,-82.6670,10.0,1.76,99.89,3.23,'1111122,1111122,1111122' 
COMPS,ioos:station:USF.COMPS:ARP:1,2014-09-01T12:18:00Z,28.4330,-82.6670,10.0,1.85,103.12,2.35,'1111122,1111122,1111122' 
COMPS,ioos:station:USF.COMPS:ARP:1,2014-09-01T12:24:00Z,28.4330,-82.6670,10.0,1.92,97.95,2.64,'1111122,1111122,1111122' 
COMPS,ioos:station:USF.COMPS:ARP:1,2014-09-01T12:30:00Z,28.4330,-82.6670,10.0,1.72,104.13,2.74,'1111122,1111122,1111122' 
COMPS,ioos:station:USF.COMPS:ARP:1,2014-09-01T12:36:00Z,28.4330,-82.6670,10.0,2.01,108.48,2.93,'1111122,1111122,1111122' 
COMPS,ioos:station:USF.COMPS:ARP:1,2014-09-01T12:42:00Z,28.4330,-82.6670,10.0,2.15,102.38,3.23,'1111122,1111122,1111122' 
COMPS,ioos:station:USF.COMPS:ARP:1,2014-09-01T12:48:00Z,28.4330,-82.6670,10.0,1.9,107.38,3.03,'1111122,1111122,1111122' 
COMPS,ioos:station:USF.COMPS:ARP:1,2014-09-01T12:54:00Z,28.4330,-82.6670,10.0,1.93,107.18,3.13,'1111122,1111122,1111122' 
COMPS,ioos:station:USF.COMPS:ARP:1,2014-09-01T13:00:00Z,28.4330,-82.6670,10.0,1.94,99.59,2.93,'1111122,1111122,1111122' 
COMPS,ioos:station:USF.COMPS:ARP:1,2014-09-01T13:06:00Z,28.4330,-82.6670,10.0,2.14,98.31,3.33,'1111122,1111122,1111122' 
COMPS,ioos:station:USF.COMPS:ARP:1,2014-09-01T13:12:00Z,28.4330,-82.6670,10.0,2.37,106.4,3.72,'1111122,1111122,1111122' 
COMPS,ioos:station:USF.COMPS:ARP:1,2014-09-01T13:18:00Z,28.4330,-82.6670,10.0,1.96,111.63,3.03,'1111122,1111122,1111122' 
COMPS,ioos:station:USF.COMPS:ARP:1,2014-09-01T13:24:00Z,28.4330,-82.6670,10.0,2.15,110.67,3.33,'1111122,1111122,1111122' 
COMPS,ioos:station:USF.COMPS:ARP:1,2014-09-01T13:30:00Z,28.4330,-82.6670,10.0,1.7,112.03,3.03,'1111122,1111122,1111122' 
COMPS,ioos:station:USF.COMPS:ARP:1,2014-09-01T13:36:00Z,28.4330,-82.6670,10.0,2.33,109.81,3.91,'1111122,1111122,1111122' 
COMPS,ioos:station:USF.COMPS:ARP:1,2014-09-01T13:42:00Z,28.4330,-82.6670,10.0,1.32,112.06,2.74,'1111122,1111122,1111122' 
COMPS,ioos:station:USF.COMPS:ARP:1,2014-09-01T13:48:00Z,28.4330,-82.6670,10.0,1.59,119.98,4.41,'1111122,1111122,1111122' 
COMPS,ioos:station:USF.COMPS:ARP:1,2014-09-01T13:54:00Z,28.4330,-82.6670,10.0,1.43,118.52,2.64,'1111122,1111122,1111122' 
COMPS,ioos:station:USF.COMPS:ARP:1,2014-09-01T14:00:00Z,28.4330,-82.6670,10.0,2.18,106.77,3.33,'1111122,1111122,1111122' 
COMPS,ioos:station:USF.COMPS:ARP:1,2014-09-01T14:06:00Z,28.4330,-82.6670,10.0,2.2,107.24,3.82,'1111122,1111122,1111122' 
COMPS,ioos:station:USF.COMPS:ARP:1,2014-09-01T14:12:00Z,28.4330,-82.6670,10.0,1.37,113.88,2.84,'1111122,1111122,1111122' 
COMPS,ioos:station:USF.COMPS:ARP:1,2014-09-01T14:18:00Z,28.4330,-82.6670,10.0,1.52,133.17,3.52,'1111122,1111122,1111122' 
COMPS,ioos:station:USF.COMPS:ARP:1,2014-09-01T14:24:00Z,28.4330,-82.6670,10.0,1.54,123.39,2.93,'1111122,1111122,1111122' 
COMPS,ioos:station:USF.COMPS:ARP:1,2014-09-01T14:30:00Z,28.4330,-82.6670,10.0,1.41,153.44,2.84,'1111122,1111122,1111122' 
COMPS,ioos:station:USF.COMPS:ARP:1,2014-09-01T14:36:00Z,28.4330,-82.6670,10.0,1.82,139.25,3.42,'1111122,1111122,1111122' 
COMPS,ioos:station:USF.COMPS:ARP:1,2014-09-01T14:42:00Z,28.4330,-82.6670,10.0,1.42,121.87,2.74,'1111122,1111122,1111122' 
COMPS,ioos:station:USF.COMPS:ARP:1,2014-09-01T14:48:00Z,28.4330,-82.6670,10.0,1.34,124.18,2.54,'1111122,1111122,1111122' 
COMPS,ioos:station:USF.COMPS:ARP:1,2014-09-01T14:54:00Z,28.4330,-82.6670,10.0,1.4,104.65,2.64,'1111122,1111122,1111122' 
COMPS,ioos:station:USF.COMPS:ARP:1,2014-09-01T15:00:00Z,28.4330,-82.6670,10.0,1.94,136.65,3.13,'1111122,1111122,1111122' 
COMPS,ioos:station:USF.COMPS:ARP:1,2014-09-01T15:06:00Z,28.4330,-82.6670,10.0,1.45,130.52,3.13,'1111122,1111122,1111122' 
COMPS,ioos:station:USF.COMPS:ARP:1,2014-09-01T15:12:00Z,28.4330,-82.6670,10.0,1.83,103.08,3.13,'1111122,1111122,1111122' 
COMPS,ioos:station:USF.COMPS:ARP:1,2014-09-01T15:18:00Z,28.4330,-82.6670,10.0,1.99,111.06,3.91,'1111122,1111122,1111122' 
COMPS,ioos:station:USF.COMPS:ARP:1,2014-09-01T15:24:00Z,28.4330,-82.6670,10.0,0.67,154.62,1.46,'1111122,1111122,1111122' 
COMPS,ioos:station:USF.COMPS:ARP:1,2014-09-01T15:30:00Z,28.4330,-82.6670,10.0,1.15,113.13,1.95,'1111122,1111122,1111122' 
COMPS,ioos:station:USF.COMPS:ARP:1,2014-09-01T15:36:00Z,28.4330,-82.6670,10.0,2.41,83.2,3.42,'1111122,1111122,1111122' 
COMPS,ioos:station:USF.COMPS:ARP:1,2014-09-01T15:42:00Z,28.4330,-82.6670,10.0,1.58,139.1,3.03,'1111122,1111122,1111122' 
COMPS,ioos:station:USF.COMPS:ARP:1,2014-09-01T15:48:00Z,28.4330,-82.6670,10.0,1.22,165.21,3.42,'1111122,1111122,1111122' 
COMPS,ioos:station:USF.COMPS:ARP:1,2014-09-01T15:54:00Z,28.4330,-82.6670,10.0,2.13,110.94,3.62,'1111122,1111122,1111122' 
COMPS,ioos:station:USF.COMPS:ARP:1,2014-09-01T16:00:00Z,28.4330,-82.6670,10.0,1.82,87.98,2.84,'1111122,1111122,1111122' 
COMPS,ioos:station:USF.COMPS:ARP:1,2014-09-01T16:06:00Z,28.4330,-82.6670,10.0,2.11,93.37,4.21,'1111122,1111122,1111122' 
COMPS,ioos:station:USF.COMPS:ARP:1,2014-09-01T16:12:00Z,28.4330,-82.6670,10.0,1.36,116.96,2.15,'1111122,1111122,1111122' 
COMPS,ioos:station:USF.COMPS:ARP:1,2014-09-01T16:18:00Z,28.4330,-82.6670,10.0,1.84,126.15,3.23,'1111122,1111122,1111122' 
COMPS,ioos:station:USF.COMPS:ARP:1,2014-09-01T16:24:00Z,28.4330,-82.6670,10.0,1.81,102.96,5.48,'1111122,1111122,1111122' 
COMPS,ioos:station:USF.COMPS:ARP:1,2014-09-01T16:30:00Z,28.4330,-82.6670,10.0,2.33,108.02,4.01,'1111122,1111122,1111122' 
COMPS,ioos:station:USF.COMPS:ARP:1,2014-09-01T16:36:00Z,28.4330,-82.6670,10.0,1.46,120.15,3.52,'1111122,1111122,1111122' 
COMPS,ioos:station:USF.COMPS:ARP:1,2014-09-01T16:42:00Z,28.4330,-82.6670,10.0,1.51,127.46,3.42,'1111122,1111122,1111122' 
COMPS,ioos:station:USF.COMPS:ARP:1,2014-09-01T16:48:00Z,28.4330,-82.6670,10.0,1.12,103.08,2.05,'1111122,1111122,1111122' 
COMPS,ioos:station:USF.COMPS:ARP:1,2014-09-01T16:54:00Z,28.4330,-82.6670,10.0,2.26,112.93,4.01,'1111122,1111122,1111122' 
COMPS,ioos:station:USF.COMPS:ARP:1,2014-09-01T17:00:00Z,28.4330,-82.6670,10.0,2.06,98.36,3.23,'1111122,1111122,1111122' 
COMPS,ioos:station:USF.COMPS:ARP:1,2014-09-01T17:06:00Z,28.4330,-82.6670,10.0,1.98,80.95,3.42,'1111122,1111122,1111122' 
COMPS,ioos:station:USF.COMPS:ARP:1,2014-09-01T17:12:00Z,28.4330,-82.6670,10.0,1.05,116.68,2.45,'1111122,1111122,1111122' 
COMPS,ioos:station:USF.COMPS:ARP:1,2014-09-01T17:18:00Z,28.4330,-82.6670,10.0,1.45,133.39,3.33,'1111122,1111122,1111122' 
COMPS,ioos:station:USF.COMPS:ARP:1,2014-09-01T17:24:00Z,28.4330,-82.6670,10.0,1.13,89.63,3.33,'1111122,1111122,1111122' 
COMPS,ioos:station:USF.COMPS:ARP:1,2014-09-01T17:30:00Z,28.4330,-82.6670,10.0,0.81,90.55,2.15,'1111122,1111122,1111122' 
COMPS,ioos:station:USF.COMPS:ARP:1,2014-09-01T17:36:00Z,28.4330,-82.6670,10.0,1.26,113.0,2.64,'1111122,1111122,1111122' 
COMPS,ioos:station:USF.COMPS:ARP:1,2014-09-01T17:42:00Z,28.4330,-82.6670,10.0,1.37,93.14,2.74,'1111122,1111122,1111122' 
COMPS,ioos:station:USF.COMPS:ARP:1,2014-09-01T17:48:00Z,28.4330,-82.6670,10.0,1.94,35.38,3.72,'1111122,1111122,1111122' 
COMPS,ioos:station:USF.COMPS:ARP:1,2014-09-01T17:54:00Z,28.4330,-82.6670,10.0,2.58,289.11,3.33,'1111122,1111122,1111122' 
COMPS,ioos:station:USF.COMPS:ARP:1,2014-09-01T18:00:00Z,28.4330,-82.6670,10.0,3.36,304.93,4.8,'1111122,1111122,1111122' 
COMPS,ioos:station:USF.COMPS:ARP:1,2014-09-01T18:06:00Z,28.4330,-82.6670,10.0,3.64,308.16,5.09,'1111122,1111122,1111122' 
COMPS,ioos:station:USF.COMPS:ARP:1,2014-09-01T18:12:00Z,28.4330,-82.6670,10.0,3.43,299.46,4.01,'1111122,1111122,1111122' 
COMPS,ioos:station:USF.COMPS:ARP:1,2014-09-01T18:18:00Z,28.4330,-82.6670,10.0,3.68,298.92,4.41,'1111122,1111122,1111122' 
COMPS,ioos:station:USF.COMPS:ARP:1,2014-09-01T18:24:00Z,28.4330,-82.6670,10.0,3.78,303.99,4.5,'1111122,1111122,1111122' 
COMPS,ioos:station:USF.COMPS:ARP:1,2014-09-01T18:30:00Z,28.4330,-82.6670,10.0,3.95,299.99,4.99,'1111122,1111122,1111122' 
COMPS,ioos:station:USF.COMPS:ARP:1,2014-09-01T18:36:00Z,28.4330,-82.6670,10.0,4.27,295.83,5.09,'1111122,1111122,1111122' 
COMPS,ioos:station:USF.COMPS:ARP:1,2014-09-01T18:42:00Z,28.4330,-82.6670,10.0,4.21,297.78,5.09,'1111122,1111122,1111122' 
COMPS,ioos:station:USF.COMPS:ARP:1,2014-09-01T18:48:00Z,28.4330,-82.6670,10.0,4.16,300.98,4.8,'1111122,1111122,1111122' 
COMPS,ioos:station:USF.COMPS:ARP:1,2014-09-01T18:54:00Z,28.4330,-82.6670,10.0,4.21,296.41,5.19,'1111122,1111122,1111122' 
COMPS,ioos:station:USF.COMPS:ARP:1,2014-09-01T19:00:00Z,28.4330,-82.6670,10.0,3.93,295.42,4.7,'1111122,1111122,1111122' 
COMPS,ioos:station:USF.COMPS:ARP:1,2014-09-01T19:06:00Z,28.4330,-82.6670,10.0,3.98,289.97,4.8,'1111122,1111122,1111122' 
COMPS,ioos:station:USF.COMPS:ARP:1,2014-09-01T19:12:00Z,28.4330,-82.6670,10.0,4.33,296.54,5.39,'1111122,1111122,1111122' 
COMPS,ioos:station:USF.COMPS:ARP:1,2014-09-01T19:18:00Z,28.4330,-82.6670,10.0,4.25,289.73,5.19,'1111122,1111122,1111122' 
COMPS,ioos:station:USF.COMPS:ARP:1,2014-09-01T19:24:00Z,28.4330,-82.6670,10.0,4.54,288.83,5.39,'1111122,1111122,1111122' 
COMPS,ioos:station:USF.COMPS:ARP:1,2014-09-01T19:30:00Z,28.4330,-82.6670,10.0,4.22,286.02,5.68,'1111122,1111122,1111122' 